Find Starlink 33842

NORAD ID: 63782 Int'l Des: 2025-091 Owner: SPXS Country: US Constellation: starlink operational
LEOCIRCULAR

实时位置

正在加载3D地球...

关于 Starlink 33842

正在加载描述...

即将过境

Passes for default location (London). Set your location on the main map for personalized predictions.

高度历史

Loading altitude history...

两行轨道根数

1 63782U 25091H 26125.58668679 .00028360 00000-0 10355-2 0 9999
2 63782 42.9954 91.2195 0002175 291.1193 68.9426 15.27600005 57697
Epoch: May 5, 2026 • Age: 28 hours

当前状态

高度 483.4 km
速度 7.63 km/s
星下点 -10.20°S, 65.01°W
发射日期 May 2, 2025
运行时间 1 years
类型 internet

技术详情

分类 Payload
质量 575.00 kg
干质量 530.00 kg
总质量 575.00 kg
长度 0.30 m
直径 4.10 m
跨度 29.00 m
形状 Box + pan
制造商 SPXS
平台类型 Starlink V2MO
阶段状态 In Orbit
所有者/国家 SPXS/US

Most Searched